"2014-08-01 00:01:00",1260529,-6.731176,-4.108378,-92.56234,23.47627,-57.98611,23.53871,0,-1.080413,-47.63145,15.29793,0,0.004,372.7,0,0,0,16.18868,14.42844,14.23931,21.92763,21.87986,21.15014,19.0788,15.68723,13.34466,20.07462,"NAN","NAN",20.32607,-52.12587,-12.43184,-3.846172,-9.29975,0.43385,33.9039,37.11616,37.97517,39.31342,32.95672,37.0619,38.49284,38.92913,34.95732,0.5247375,0.6641954,0.7039364,0.7679117,0.4863751,0.6617222,0.7283849,0.7492807,0.5688789,1.000153,14.71992,13.64643,346.4,381.4,344.9,-39.09,13.22
"2014-08-01 00:02:00",1260530,-6.754002,-4.126321,-91.99154,23.37142,-57.70662,23.43714,0,-0.9973106,-46.96009,15.24897,0,0.004,258,0,0,0,16.18868,14.40221,14.22966,21.9279,21.88286,21.14356,19.07174,15.69439,13.34138,20.03527,"NAN","NAN",20.31294,-52.10015,-12.45921,-3.874835,-9.335615,0.4335343,33.90616,37.09129,38.00004,39.23883,32.98159,37.028,38.5064,38.97208,34.9528,0.5248309,0.6630616,0.7051021,0.7642768,0.4873658,0.6601756,0.7290301,0.7513535,0.5686862,1.000153,14.69507,13.65747,346.4,381,345.3,-38.36,13.16
"2014-08-01 00:03:00",1260531,-6.776805,-4.108421,-90.50607,23.22982,-56.75517,23.30212,0,-0.9557572,-46.34446,15.19999,0,0.004,369.7,0,0,0,16.1758,14.353,14.19997,21.92105,21.86047,21.14028,19.08561,15.69847,13.32829,20.01559,"NAN","NAN",20.3031,-52.11074,-12.48905,-3.901836,-9.371417,0.4335313,33.88581,37.1365,37.97291,39.30664,32.97255,37.06868,38.50414,38.94269,34.95506,0.5239936,0.6651244,0.7038302,0.7675784,0.4870052,0.6620312,0.7289223,0.7499368,0.568783,1.000153,14.67511,13.59949,347,381.2,345.7,-38.21,13.19
"2014-08-01 00:04:00",1260532,-6.816665,-4.090504,-90.73483,23.14439,-57.42696,23.22654,0,-0.5817666,-45.50499,15.1213,0,0.004,317.7,0,0,0,16.16046,14.29068,14.12127,21.91776,21.85334,21.14685,19.07552,15.68517,13.33156,20.00903,"NAN","NAN",20.3031,-52.15289,-12.51801,-3.928826,-9.40634,0.4326005,33.89712,37.12068,37.97969,39.26369,32.99063,37.03704,38.5177,38.93817,34.9415,0.5244584,0.6644012,0.7041478,0.7654857,0.4877272,0.6605863,0.7295681,0.7497162,0.5682047,1.000153,14.65177,13.51207,346.3,380.1,346.1,-36.74,12.98
"2014-08-01 00:05:00",1260533,-6.776783,-4.030778,-91.42088,23.12199,-57.76304,23.16411,0,-0.9142086,-45.56116,15.08194,0,0.004,404,0,0,0,16.10477,14.25131,14.10161,21.91119,21.85091,21.14685,19.08257,15.72631,13.33483,19.99591,"NAN","NAN",20.30664,-52.22146,-12.5461,-3.954993,-9.442105,0.4310449,33.89938,37.14328,37.97517,39.28403,32.96803,37.09355,38.4951,38.92913,34.96184,0.5245516,0.6654341,0.7039359,0.7664757,0.4868253,0.6631718,0.7284923,0.7492816,0.5690732,1.000153,14.63144,13.3179,345.5,379.4,345.8,-36.32,12.85
"2014-08-01 00:06:00",1260534,-6.685667,-4.060636,-90.67808,23.11841,-57.20332,23.17127,0,-0.9973184,-46.00893,15.06228,0,0.004,470.7,0,0,0,16.05522,14.37596,14.1608,21.89479,21.8646,21.13371,19.08282,15.71626,13.32502,19.99288,"NAN","NAN",20.29654,-52.28441,-12.57081,-3.981987,-9.475333,0.4299605,33.88581,37.13876,37.96387,39.26821,32.97707,37.01217,38.52223,38.92234,34.93246,0.5239934,0.6652292,0.703407,0.7657052,0.4871856,0.659455,0.7297843,0.748954,0.5678194,1.000153,14.60846,13.58937,346.2,380,345.2,-37.36,12.96
"2014-08-01 00:07:00",1260535,-6.628765,-4.066635,-89.4776,23.04911,-55.5238,23.10586,0,-1.080421,-46.00863,15.07866,0,0.004,459.3,0,0,0,16.04664,14.54325,14.33534,21.88167,21.86132,21.13699,19.08939,15.72362,13.31521,19.9601,"NAN","NAN",20.30086,-52.34504,-12.59989,-4.009015,-9.512053,0.4298119,33.9152,37.14555,37.97065,39.27273,32.99063,37.04382,38.49962,38.98112,34.93698,0.525204,0.6655378,0.703724,0.7659262,0.4877271,0.6608955,0.7287071,0.7517921,0.5680119,1.000153,14.58776,13.51299,347,381.3,345.3,-38.5,13.21
"2014-08-01 00:08:00",1260536,-6.520586,-3.947218,-89.1918,22.98427,-54.74013,23.02013,0,-1.495966,-46.40038,15.12785,0,0.004,539.3,0,0,0,16.01715,14.65149,14.47966,21.8751,21.87171,21.13398,19.08257,15.70643,13.32175,19.94068,"NAN","NAN",20.30414,-52.42379,-12.63229,-4.03438,-9.545299,0.4302023,33.89034,37.13424,37.97517,39.28856,32.97933,37.04156,38.51093,38.93365,34.93698,0.5241793,0.6650206,0.7039359,0.7666955,0.4872755,0.6607922,0.7292451,0.7494983,0.5680119,1.000153,14.56291,13.38139,346.9,381.6,345.2,-38.91,13.26
"2014-08-01 00:09:00",1260537,-6.35546,-3.774056,-89.87719,22.93826,-55.13177,23.02072,0,-1.495962,-47.63161,15.23934,0,0.004,405.7,0,0,0,16.01428,14.74334,14.57168,21.8751,21.86515,21.12386,19.07953,15.72383,13.31192,19.94119,"NAN","NAN",20.3044,-52.49205,-12.6605,-4.063041,-9.577748,0.4323727,33.90616,37.12972,37.96613,39.29534,32.94994,37.08677,38.49962,38.94043,34.93472,0.5248306,0.6648144,0.7035123,0.7670289,0.4861056,0.6628583,0.7287071,0.7498252,0.5679154,1.000153,14.54408,13.51759,345.9,381.2,344.6,-39.16,13.19
"2014-08-01 00:10:00",1260538,-6.207512,-3.726354,-90.27663,22.93826,-55.29937,22.995,0,-1.495953,-48.24702,15.33438,0,0.004,444,0,0,0,16.0108,14.77615,14.62089,21.86524,21.87938,21.13042,19.07296,15.72034,13.31538,19.93134,"NAN","NAN",20.29811,-52.5053,-12.69477,-4.089279,-9.614532,0.4327686,33.87903,37.1252,37.98195,39.26369,32.99741,36.99861,38.51093,38.95852,34.93246,0.5237144,0.6646076,0.7042542,0.7654853,0.4879975,0.658838,0.7292456,0.750698,0.5678193,1.000153,14.52789,13.33814,345.5,380.8,344.5,-38.84,13.13
"2014-08-01 00:11:00",1260539,-6.144867,-3.762184,-90.39091,22.87673,-55.01951,22.94512,0,-1.163519,-48.19104,15.34095,0,0.004,353,0,0,0,16.02145,14.786,14.64383,21.8554,21.86543,21.12714,19.07953,15.71052,13.31227,19.92833,"NAN","NAN",20.30794,-52.57087,-12.72289,-4.117092,-9.648614,0.4326137,33.88581,37.13424,37.97291,39.27273,32.98159,37.01443,38.51545,38.93817,34.92794,0.5239936,0.6650208,0.7038299,0.7659258,0.487366,0.6595579,0.7294612,0.7497162,0.5676268,1.000153,14.50304,13.47894,345.1,380.8,344.6,-38.63,13.12
"2014-08-01 00:12:00",1260540,-6.099338,-3.702485,-90.79144,22.86301,-54.74,22.92928,0,-1.495962,-48.6951,15.377,0,0.004,306,0,0,0,16.00159,14.75647,14.634,21.85539,21.86187,21.12714,19.06967,15.71031,13.3121,19.90891,"NAN","NAN",20.29484,-52.72844,-12.7545,-4.142477,-9.682755,0.4330724,33.90842,37.11616,37.97065,39.2863,32.97255,37.06868,38.5064,38.91556,34.9528,0.5249243,0.664195,0.7037242,0.7665856,0.4870054,0.6620323,0.7290301,0.7486277,0.5686868,1.000153,14.48685,13.4863,344.6,381,344.3,-39.14,13.16
"2014-08-01 00:13:00",1260541,-6.070878,-3.672636,-90.84869,22.86659,-55.41173,22.90957,0,-1.495964,-49.03098,15.45262,0,0.004,379.7,0,0,0,15.98522,14.71054,14.60121,21.85211,21.85585,21.12714,19.06967,15.69393,13.30538,19.89249,"NAN","NAN",20.29156,-52.71012,-12.79456,-4.168659,-9.716849,0.4357027,33.88808,37.1252,37.97969,39.27499,32.97029,37.04156,38.50414,38.93817,34.92567,0.5240867,0.6646076,0.7041478,0.7660353,0.4869151,0.6607922,0.7289223,0.7497162,0.5675303,1.000153,14.46801,13.47618,344.5,380.2,344.4,-38.28,13.01
"2014-08-01 00:14:00",1260542,-6.048086,-3.654714,-90.84888,22.85373,-56.02754,22.903,0,-1.495968,-49.36692,15.49544,0,0.004,930,0,0,0,15.9592,14.74992,14.61433,21.8464,21.86653,21.13069,19.06967,15.71769,13.30882,19.85971,"NAN","NAN",20.29156,-52.61293,-12.82774,-4.193183,-9.749191,0.4363984,33.88808,37.12294,37.97291,39.29308,32.96125,37.03025,38.5064,38.91556,34.9415,0.5240863,0.6645046,0.70383,0.7669181,0.486555,0.6602776,0.7290299,0.7486288,0.5682048,1.000127,14.44316,13.44489,344.5,379.6,344.2,-37.72,12.89
"2014-08-01 00:15:00",1260543,-6.03664,-3.654679,-91.19213,22.86359,-56.25167,22.89315,0,-1.37131,-49.47908,15.5442,0,0.004,742.7,0,0,0,15.93319,14.75646,14.62088,21.82615,21.86297,21.13042,19.07296,15.70417,13.29883,19.85971,"NAN","NAN",20.28828,-52.59688,-12.85917,-4.220964,-9.7832,0.4355398,33.87451,37.15232,37.98421,39.27951,32.96577,37.02121,38.5177,38.93591,34.91889,0.5235285,0.6658561,0.704361,0.7662553,0.486735,0.6598662,0.7295685,0.7496077,0.5672414,1.00014,14.42434,13.54612,344.2,379.3,344.4,-37.27,12.83
"2014-08-01 00:16:00",1260544,-6.059419,-3.76217,-92.27774,22.88986,-57.37111,22.93585,0,-0.9973162,-49.53505,15.54769,0,0.004,590.3,0,0,0,15.92992,14.77286,14.61433,21.81931,21.86653,21.13069,19.06967,15.69741,13.30228,19.85315,"NAN","NAN",20.29182,-52.69918,-12.88644,-4.247141,-9.818133,0.4349201,33.8926,37.12746,37.98421,39.27273,32.97481,37.03478,38.5064,38.91105,34.9528,0.5242725,0.6647119,0.7043598,0.7659256,0.4870955,0.6604834,0.7290301,0.7484105,0.5686873,1.000127,14.404,13.53508,343.2,378.4,344.4,-36.36,12.67
"2014-08-01 00:17:00",1260545,-6.099253,-4.024904,-92.90671,22.95556,-57.25945,22.98514,0,-0.9973211,-49.9271,15.52803,0,0.004,642.7,0,0,0,15.90371,14.77286,14.61761,21.83713,21.86326,21.1378,19.06967,15.7011,13.30228,19.83347,"NAN","NAN",20.28828,-52.87263,-12.91447,-4.272473,-9.851301,0.4345281,33.87677,37.10485,38.00456,39.26595,32.97029,37.03252,38.5064,38.93365,34.91889,0.5236216,0.6636803,0.7053148,0.765595,0.4869151,0.6603805,0.7290299,0.7494984,0.5672415,1.000166,14.39195,13.49366,343,378.8,343.9,-37.04,12.75
"2014-08-01 00:18:00",1260546,-6.167576,-4.305562,-93.24963,23.01143,-57.42742,23.02788,0,-0.9973221,-49.8152,15.48521,0,0.004,609.7,0,0,0,15.87096,14.72694,14.58152,21.84425,21.8701,21.12714,19.06967,15.70744,13.3021,19.81379,"NAN","NAN",20.29156,-53.07467,-12.94683,-4.297007,-9.882814,0.4358424,33.90842,37.10259,37.97517,39.31794,32.96125,37.03704,38.51545,38.94043,34.92567,0.524924,0.6635761,0.703939,0.768132,0.4865548,0.6605865,0.7294604,0.7498252,0.5675302,1.000115,14.37313,13.4863,343,378.9,343.7,-37.03,12.76
"2014-08-01 00:19:00",1260547,-6.401077,-4.45486,-92.90696,23.02788,-56.86779,23.02788,0,-0.9973238,-49.36752,15.40323,0,0.004,691.7,0,0,0,15.85458,14.59573,14.51592,21.82427,21.86653,21.12714,19.06639,15.70457,13.30917,19.80068,"NAN","NAN",20.28828,-53.27676,-12.97414,-4.320743,-9.917779,0.4366159,33.87451,37.17267,37.97291,39.29308,32.96577,37.0393,38.50866,38.93817,34.92793,0.5235286,0.6667916,0.7038301,0.7669159,0.4867349,0.6606892,0.7291375,0.7497163,0.5676265,1.000178,14.34828,13.48722,343.4,379.5,343.7,-37.67,12.87
"2014-08-01 00:20:00",1260548,-6.634619,-4.311573,-93.25012,22.98842,-56.75605,23.02788,0,-0.9973273,-49.64755,15.36081,0,0.004,745.7,0,0,0,15.85479,14.42516,14.38473,21.82098,21.86653,21.1378,19.06639,15.70785,13.3195,19.78429,"NAN","NAN",20.29182,-53.46325,-13.00489,-4.343674,-9.95107,0.4389342,33.91294,37.12294,37.97517,39.25917,32.98837,37.03252,38.50188,38.97434,34.91437,0.5251109,0.6645045,0.7039359,0.7652659,0.4876367,0.6603804,0.7288147,0.7514656,0.5670491,1.00014,14.33585,13.48262,342.9,379.6,343.2,-38.67,12.89
"2014-08-01 00:21:00",1260549,-6.742823,-4.16228,-93.59296,22.97856,-57.09188,23.02788,0,-0.9973273,-50.03936,15.31471,0,0.004,718.3,0,0,0,15.8513,14.37596,14.29618,21.82895,21.86682,21.13425,19.06639,15.7011,13.31607,19.78101,"NAN","NAN",20.29182,-53.64948,-13.03216,-4.371486,-9.9843,0.4400185,33.88808,37.1365,37.97291,39.33829,32.9635,37.05286,38.50866,38.94495,34.90985,0.5240865,0.6651245,0.7038302,0.7691276,0.486645,0.6613103,0.7291376,0.7500436,0.5668563,1.000153,14.31589,13.42464,342.5,379.2,342.6,-39.24,12.82
"2014-08-01 00:22:00",1260550,-6.765642,-4.102586,-93.93613,23.01801,-57.42793,23.04102,0,-0.997331,-49.98357,15.31143,0,0.004,815,0,0,0,15.84803,14.37268,14.24369,21.82239,21.86682,21.14136,19.06992,15.7011,13.32296,19.7679,"NAN","NAN",20.29182,-53.7993,-13.06122,-4.402603,-10.0159,0.4402473,33.8926,37.1365,37.97065,39.26143,32.97933,37.03478,38.51318,38.94495,34.90081,0.5242726,0.6651241,0.7037242,0.7653756,0.4872757,0.6604836,0.7293528,0.7500444,0.5664719,1.000115,14.30083,13.61054,342.3,379,342.6,-39.02,12.78
"2014-08-01 00:23:00",1260551,-6.77705,-4.102598,-93.59336,23.02788,-57.20408,23.05088,0,-0.9973317,-50.03958,15.29178,0,0.004,1626,0,0,0,15.83841,14.3038,14.2437,21.82267,21.87039,21.14136,19.05983,15.70457,13.33327,19.74495,"NAN","NAN",20.28828,-53.90952,-13.08936,-4.44351,-10.04999,0.4409426,33.87903,37.13424,37.97517,39.27047,32.96803,37.02348,38.52223,38.93365,34.91437,0.5237145,0.6650214,0.703936,0.7658155,0.486825,0.6599688,0.7297838,0.7494988,0.5670491,1.00014,14.28426,13.53968,342.7,379.3,342.5,-39.48,12.83
"2014-08-01 00:24:00",1260552,-6.83401,-4.036914,-93.65063,23.01472,-57.26013,23.03773,0,-0.997333,-50.03964,15.27559,0,0.004,7298,0,0,0,15.81198,14.28411,14.21089,21.81582,21.86682,21.14847,19.06311,15.71501,13.33327,19.72196,"NAN","NAN",20.28828,-53.98832,-13.11751,-4.482788,-10.08325,0.4408644,33.89712,37.12068,37.96613,39.34281,32.94994,37.02121,38.52223,38.93365,34.91663,0.5244584,0.6644012,0.7035123,0.7693517,0.4861047,0.6598662,0.7297847,0.7494983,0.567145,1.000127,14.27222,13.51483,342.6,379.1,342.4,-39.56,12.8
"2014-08-01 00:25:00",1260553,-6.805582,-3.977223,-93.36517,22.99829,-56.70055,23.03116,0,-1.080447,-50.03978,15.27558,0,0.004,4017,0,0,0,15.80973,14.33331,14.24042,21.81254,21.85399,21.15558,19.06639,15.71501,13.3264,19.70885,"NAN","NAN",20.29182,-54.06198,-13.14655,-4.517987,-10.11568,0.440086,33.88808,37.10485,37.97743,39.28177,32.96576,37.04156,38.51318,38.93817,34.90985,0.5240867,0.6636797,0.704042,0.7663674,0.4867352,0.6607923,0.729353,0.7497162,0.5668564,1.000089,14.25339,13.51575,342.8,379.7,342.4,-40.11,12.9
"2014-08-01 00:26:00",1260554,-6.822667,-3.977223,-93.02234,22.95556,-55.86096,23.02817,0,-1.496003,-50.03978,15.28871,0,0.004,739.7,0,0,0,15.78269,14.42188,14.3093,21.80651,21.85456,21.14874,19.05655,15.71153,13.33327,19.70584,"NAN","NAN",20.28828,-54.12756,-13.17808,-4.547436,-10.14806,0.4403183,33.90616,37.09129,37.99552,39.26821,32.98159,37.02348,38.5064,38.97434,34.91663,0.5248327,0.6630604,0.70489,0.7657056,0.4873672,0.6599691,0.7290302,0.7514615,0.5671453,1.000127,14.24096,13.41728,342.9,380.5,342.4,-40.88,13.06
"2014-08-01 00:27:00",1260555,-6.817069,-3.863814,-92.96546,22.92301,-55.41333,22.96213,0,-1.496007,-50.43172,15.30857,0,0.004,561.7,0,0,0,15.7866,14.38616,14.28307,21.81335,21.86084,21.14491,19.05983,15.71153,13.34362,19.7023,"NAN","NAN",20.28828,-54.18553,-13.2124,-4.573695,-10.17892,0.4406255,33.89034,37.1139,37.97291,39.27499,32.96125,37.04156,38.50188,38.95399,34.90985,0.5241793,0.664092,0.7038299,0.7660354,0.4865547,0.6607923,0.7288147,0.7504811,0.5668566,1.000076,14.22853,13.57281,342.8,380.5,342.2,-41.33,13.07
"2014-08-01 00:28:00",1260556,-6.800032,-3.780235,-92.96552,22.87673,-55.41336,22.94899,0,-1.496008,-50.71161,15.33479,0,0.004,561,0,0,0,15.77349,14.43865,14.30292,21.80979,21.83375,21.15558,19.06664,15.71501,13.33328,19.69574,"NAN","NAN",20.28828,-54.26689,-13.24482,-4.600707,-10.21048,0.4407791,33.87677,37.11616,37.97743,39.27273,32.95672,37.04382,38.51092,38.94495,34.91889,0.5236217,0.6641948,0.704042,0.7659252,0.4863747,0.6608956,0.7292451,0.7500434,0.5672413,1.000089,14.20594,13.49642,342.5,380.5,342,-41.45,13.05
"2014-08-01 00:29:00",1260557,-6.771564,-3.738436,-92.33698,22.85373,-54.74168,22.91644,0,-1.496008,-50.71161,15.37393,0,0.004,540,0,0,0,15.76018,14.4616,14.31914,21.8142,21.84142,21.16269,19.05983,15.71501,13.35049,19.6695,"NAN","NAN",20.28828,-54.32992,-13.27894,-4.627712,-10.24203,0.440934,33.89712,37.12068,37.96387,39.26143,32.9635,37.0619,38.49284,38.97886,34.90081,0.5244588,0.6644015,0.7034064,0.765376,0.4866449,0.6617203,0.7283845,0.7516859,0.5664715,1.000076,14.20594,13.35194,343,380.9,342.2,-41.73,13.14
"2014-08-01 00:30:00",1260558,-6.748819,-3.696652,-92.79411,22.79128,-55.35739,22.87016,0,-1.496008,-51.04746,15.38703,0,0.004,524.3,0,0,0,15.7438,14.46142,14.34536,21.80764,21.8313,21.16981,19.04999,15.71501,13.35723,19.64328,"NAN","NAN",20.28828,-54.36681,-13.31222,-4.653092,-10.27531,0.4417085,33.87903,37.11842,37.97291,39.3089,32.94316,37.04382,38.51318,38.93139,34.90307,0.5237144,0.664299,0.7038301,0.7676888,0.485835,0.6608955,0.7293528,0.7493894,0.5665678,1.000089,14.1811,13.39428,342.2,380.1,342,-41.13,12.98
"2014-08-01 00:31:00",1260559,-6.805771,-3.672764,-92.67983,22.76827,-55.58128,22.82087,0,-1.496008,-51.3833,15.4397,0,0.004,1572,0,0,0,15.72764,14.46198,14.32569,21.78766,21.84171,21.16269,19.04999,15.71501,13.35739,19.62688,"NAN","NAN",20.28828,-54.39041,-13.34631,-4.678451,-10.30683,0.4429477,33.90164,37.11842,37.97291,39.28856,32.95672,37.08225,38.5064,38.94495,34.90759,0.5246463,0.6642981,0.7038299,0.7666956,0.4863747,0.6626537,0.7290299,0.7500432,0.5667601,1.000089,14.17356,13.45317,342.1,379.5,341.9,-40.74,12.88
"2014-08-01 00:32:00",1260560,-6.834273,-3.654862,-92.90844,22.72286,-56.58883,22.79128,0,-1.080451,-51.27138,15.41657,0,0.004,5926,0,0,0,15.70429,14.62217,14.45688,21.79179,21.82941,21.17692,19.04999,15.71501,13.35739,19.63041,"NAN","NAN",20.28828,-54.40107,-13.3796,-4.703016,-10.33756,0.4443413,33.87677,37.12746,37.97969,39.28403,32.95672,37.03025,38.5177,38.95173,34.91211,0.5236214,0.6647108,0.7041478,0.7664754,0.4863748,0.6602775,0.729568,0.7503705,0.5669524,1.000076,14.1585,13.44673,341.6,378.4,341.9,-39.62,12.66
"2014-08-01 00:33:00",1260561,-6.828591,-3.642925,-92.67989,22.7387,-56.36494,22.79128,0,-0.9973397,-50.71166,15.4075,0,0.004,7999,0,0,0,15.70798,14.59958,14.50627,21.78138,21.82501,21.16981,19.04999,15.71501,13.35394,19.6236,"NAN","NAN",20.28828,-54.40373,-13.41285,-4.729198,-10.36995,0.4446508,33.87903,37.13424,37.96613,39.30438,32.94542,37.07321,38.51318,38.93817,34.89402,0.5237148,0.6650234,0.7035122,0.767473,0.4859247,0.6622383,0.7293527,0.7497162,0.566183,1.000076,14.1585,13.4228,342,378.6,342.4,-39.34,12.7
"2014-08-01 00:34:00",1260562,-6.788728,-3.642927,-91.70856,22.70913,-55.13356,22.78529,0,-1.412899,-50.71168,15.39766,0,0.004,7550,0,0,0,15.69509,14.38617,14.35193,21.78166,21.83569,21.18404,19.05655,15.71501,13.36428,19.61377,"NAN","NAN",20.29182,-54.41428,-13.44865,-4.753745,-10.40063,0.4458123,33.85643,37.27214,37.96613,39.28403,32.95898,37.04156,38.51318,38.94043,34.90985,0.5227851,0.6713442,0.7035122,0.7664754,0.4864646,0.6607922,0.7293527,0.7498252,0.5668562,1.000076,14.13365,13.48998,342.8,379.8,342.4,-40.55,12.92
"2014-08-01 00:35:00",1260563,-6.657755,-3.59516,-90.85154,22.63687,-53.73427,22.70614,0,-1.496011,-50.71172,15.39766,0,0.004,7498,0,0,0,15.66867,14.54072,14.40112,21.77154,21.82612,21.18404,19.06008,15.71501,13.36084,19.5777,"NAN","NAN",20.28828,-54.42226,-13.4768,-4.779933,-10.43304,0.4483671,33.88808,37.12068,37.96613,39.2863,32.95898,37.0393,38.51545,38.94269,34.89855,0.5240865,0.6644011,0.7035122,0.7665854,0.4864648,0.6606892,0.7294604,0.7499344,0.5663753,1.000076,14.11708,13.43477,343.2,380.7,342.4,-41.4,13.1
"2014-08-01 00:36:00",1260564,-6.521069,-3.5653,-90.73727,22.53831,-52.67078,22.62045,0,-1.412899,-50.71172,15.39438,0,0.004,3095,0,0,0,15.64263,14.60652,14.46016,21.76526,21.82257,21.1876,19.05352,15.71501,13.36084,19.58098,"NAN","NAN",20.29156,-54.4039,-13.50662,-4.805293,-10.46456,0.4498388,33.88808,37.12972,37.97291,39.2863,32.9522,37.06869,38.50414,38.93365,34.90533,0.5240863,0.6648144,0.7038301,0.7665854,0.4861946,0.6620319,0.7289223,0.7494985,0.5666645,1.000089,14.1088,13.55532,342.7,381.3,342.4,-41.87,13.21
"2014-08-01 00:37:00",1260565,-6.418577,-3.511564,-90.16598,22.43974,-51.94319,22.51859,0,-0.9142302,-50.71178,15.34502,0,0.004,4256,0,0,0,15.6326,14.69548,14.52576,21.76854,21.81901,21.18404,19.04999,15.71173,13.36084,19.55145,"NAN","NAN",20.2951,-54.37518,-13.53651,-4.830674,-10.49443,0.4516965,33.89712,37.11842,37.99099,39.27726,32.95446,37.03478,38.50188,38.9766,34.89402,0.5244592,0.6642981,0.7046781,0.7661454,0.4862846,0.6604833,0.7288147,0.751574,0.5661829,1.000102,14.1088,13.41544,342.7,381.4,342.1,-42.23,13.23
"2014-08-01 00:38:00",1260566,-6.469846,-3.529487,-89.93744,22.34119,-51.7193,22.42332,0,-0.7064508,-50.0401,15.25632,0,0.004,6492,0,0,0,15.62933,14.61617,14.50936,21.76225,21.81272,21.18788,19.04999,15.71829,13.36084,19.54817,"NAN","NAN",20.285,-54.33586,-13.56208,-4.857675,-10.52597,0.4528578,33.87677,37.16589,37.96387,39.26821,32.9635,37.04156,38.51997,38.92687,34.89177,0.5236217,0.6664719,0.7034065,0.7657054,0.4866458,0.6607936,0.7296762,0.7491717,0.5660866,1.000089,14.1088,13.42096,342.4,381.1,342.3,-41.74,13.17
"2014-08-01 00:39:00",1260567,-6.492615,-3.46976,-89.30895,22.22948,-49.92819,22.30176,0,-0.7895629,-50.15208,15.19073,0,0.004,6344,0,0,0,15.61584,14.46526,14.35521,21.75212,21.816,21.1876,19.04671,15.71501,13.36084,19.54489,"NAN","NAN",20.28828,-54.28344,-13.59015,-4.883835,-10.55746,0.4530898,33.89938,37.13424,37.95482,39.29082,32.9522,37.04156,38.50866,38.95173,34.88498,0.524553,0.6650226,0.7029831,0.7668062,0.4861945,0.6607925,0.7291375,0.7503707,0.5657985,1.000115,14.10503,13.40271,342.3,382.1,341.8,-43.37,13.37
"2014-08-01 00:40:00",1260568,-6.469776,-3.404036,-88.62336,22.07508,-47.46541,22.16378,0,-0.4986719,-50.04018,15.11879,0,0.004,7684,0,0,0,15.59926,14.36667,14.26338,21.74554,21.816,21.1876,19.04999,15.71501,13.36084,19.54489,"NAN","NAN",20.28828,-54.2337,-13.61476,-4.909159,-10.58891,0.4542502,33.87225,37.15007,37.97291,39.28403,32.95446,37.03704,38.50866,38.94269,34.8895,0.5234357,0.6657459,0.70383,0.7664754,0.4862846,0.6605863,0.7291375,0.7499344,0.5659904,1.000076,14.0862,13.50885,342.1,383.8,341.5,-45.34,13.68
"2014-08-01 00:41:00",1260569,-6.441299,-3.362232,-88.1091,21.93383,-46.45789,22.01594,0,-0.4986719,-50.04018,15.02625,0,0.004,4304,0,0,0,15.61624,14.25842,14.14531,21.74226,21.816,21.18404,19.04999,15.71501,13.36084,19.52522,"NAN","NAN",20.28828,-54.20222,-13.63777,-4.935337,-10.61958,0.4550246,33.88356,37.13424,37.97743,39.28177,32.94994,37.04834,38.50866,38.98112,34.88725,0.5239004,0.6650271,0.7040422,0.7663653,0.4861046,0.6611015,0.7291376,0.7517936,0.5658944,1.000089,14.0862,13.51161,341.8,383.9,341,-46,13.71
"2014-08-01 00:42:00",1260570,-6.469798,-3.308496,-88.10921,21.80901,-45.89821,21.89114,0,-0.4986725,-50.04025,14.98035,0,0.004,1779,0,0,0,15.61317,14.11685,14.02724,21.74554,21.8056,21.18788,19.04999,15.71501,13.36084,19.50883,"NAN","NAN",20.28828,-54.1656,-13.66254,-4.9599,-10.65371,0.4562627,33.87225,37.1478,37.97517,39.27499,32.95898,37.00765,38.52675,38.91782,34.89402,0.5234355,0.6656427,0.7039359,0.7660351,0.4864647,0.6592489,0.7299993,0.7487359,0.5661829,1.000102,14.0862,13.48853,341.1,383.8,340.8,-46.17,13.68
"2014-08-01 00:43:00",1260571,-6.503981,-3.290586,-88.05209,21.7006,-45.89822,21.7893,0,-0.4986726,-50.04026,14.95759,0,0.004,5021,0,0,0,15.59598,14.00861,13.91902,21.74226,21.81272,21.1876,19.0568,15.71501,13.35739,19.49243,"NAN","NAN",20.29156,-54.10005,-13.68385,-4.986901,-10.68269,0.4571916,33.88356,37.08903,37.98647,39.2863,32.95898,37.03478,38.51093,38.94495,34.88724,0.5239003,0.6629573,0.7044666,0.7665859,0.4864646,0.6604842,0.7292451,0.7500433,0.5658944,1.000076,14.0862,13.48299,340.5,383.2,340.6,-45.75,13.56
"2014-08-01 00:44:00",1260572,-6.589417,-3.284617,-88.22355,21.6382,-46.79382,21.71374,0,-0.4986728,-50.04028,14.92828,0,0.004,7294,0,0,0,15.60294,13.98566,13.87311,21.73897,21.81272,21.18377,19.05655,15.71501,13.35739,19.47932,"NAN","NAN",20.29536,-53.99255,-13.70774,-5.013908,-10.71595,0.4576561,33.87451,37.23145,37.97291,39.2863,32.9522,37.03478,38.50866,38.93365,34.90759,0.5235286,0.6695018,0.70383,0.7665854,0.4861946,0.6604833,0.7291376,0.7494985,0.5667611,1.000089,14.0862,13.49769,340,381.9,340.5,-44.67,13.31
"2014-08-01 00:45:00",1260573,-6.703361,-3.320469,-88.1665,21.60863,-47.46555,21.68089,0,-0.4986733,-50.04033,14.92152,0,0.004,7999,0,0,0,15.61297,13.99275,13.84032,21.71515,21.81216,21.17692,19.04999,15.71501,13.35739,19.46949,"NAN","NAN",20.28828,-53.87198,-13.72741,-5.039291,-10.74667,0.4576548,33.88356,37.13198,37.97969,39.29082,32.95446,37.03252,38.50866,38.95625,34.87142,0.5239004,0.6649175,0.7041478,0.7668057,0.4862846,0.6603814,0.7291377,0.7505892,0.5652214,1.000076,14.0862,13.53721,339.9,381,340.5,-43.92,13.15